• In Deutschland
  • Länderverzeichnis
  • Für 7 Tage
  • Wassertemperatur
  • Satellitenkarten
  • Wetterkarte
  • Widgets
  • user-avatar
    Anmelden

    Stündliche Wetter Artaschat

    Heute, 20 August, Montag

    Zeit Temperatur Niederschläge Wind Luftdruck Luftfeuchtigkeit
    00:00 +17°C° 0 mm 2 m/S 603 mmHg 54%
    01:00 +17°C° 0 mm 2 m/S 602 mmHg 56%
    02:00 +16°C° 0 mm 2 m/S 602 mmHg 58%
    03:00 +15°C° 0 mm 2 m/S 602 mmHg 61%
    04:00 +15°C° 0 mm 2 m/S 603 mmHg 62%
    05:00 +15°C° 0 mm 1 m/S 603 mmHg 63%
    06:00 +15°C° 0 mm 1 m/S 603 mmHg 64%
    07:00 +16°C° 0 mm 2 m/S 603 mmHg 58%
    08:00 +17°C° 0 mm 2 m/S 604 mmHg 52%
    09:00 +19°C° 0 mm 2 m/S 605 mmHg 46%
    10:00 +20°C° 0 mm 3 m/S 605 mmHg 43%
    11:00 +21°C° 0 mm 3 m/S 605 mmHg 39%
    12:00 +24°C° 0 mm 3 m/S 605 mmHg 35%
    13:00 +24°C° 0,1 mm 3 m/S 606 mmHg 34%
    14:00 +25°C° 0,1 mm 4 m/S 606 mmHg 32%
    15:00 +26°C° 0,1 mm 4 m/S 606 mmHg 30%
    16:00 +25°C° 0 mm 4 m/S 606 mmHg 32%
    17:00 +23°C° 0 mm 4 m/S 605 mmHg 33%
    18:00 +23°C° 0 mm 4 m/S 605 mmHg 35%
    19:00 +21°C° 0 mm 3 m/S 605 mmHg 39%
    20:00 +20°C° 0 mm 3 m/S 605 mmHg 43%
    21:00 +19°C° 0 mm 2 m/S 605 mmHg 47%
    22:00 +18°C° 0 mm 2 m/S 604 mmHg 50%
    23:00 +17°C° 0 mm 2 m/S 604 mmHg 52%

    Morgen, 21 August, Dienstag

    Zeit Temperatur Niederschläge Wind Luftdruck Luftfeuchtigkeit
    00:00 +17°C° 0 mm 2 m/S 604 mmHg 55%
    01:00 +16°C° 0 mm 2 m/S 604 mmHg 57%
    02:00 +16°C° 0 mm 1 m/S 604 mmHg 59%
    03:00 +15°C° 0 mm 1 m/S 603 mmHg 61%
    04:00 +15°C° 0 mm 1 m/S 603 mmHg 62%
    05:00 +15°C° 0 mm 1 m/S 603 mmHg 62%
    06:00 +15°C° 0 mm 1 m/S 604 mmHg 63%
    07:00 +18°C° 0 mm 1 m/S 604 mmHg 56%
    08:00 +19°C° 0 mm 1 m/S 605 mmHg 49%
    09:00 +20°C° 0 mm 2 m/S 605 mmHg 42%
    10:00 +21°C° 0 mm 2 m/S 605 mmHg 38%
    11:00 +24°C° 0 mm 2 m/S 605 mmHg 34%
    12:00 +25°C° 0 mm 2 m/S 605 mmHg 29%
    13:00 +26°C° 0 mm 2 m/S 605 mmHg 28%
    14:00 +27°C° 0 mm 3 m/S 605 mmHg 26%
    15:00 +27°C° 0 mm 3 m/S 605 mmHg 24%
    16:00 +27°C° 0 mm 3 m/S 605 mmHg 25%
    17:00 +26°C° 0 mm 2 m/S 605 mmHg 26%
    18:00 +26°C° 0 mm 2 m/S 604 mmHg 28%
    19:00 +24°C° 0 mm 2 m/S 604 mmHg 32%
    20:00 +23°C° 0 mm 2 m/S 604 mmHg 37%
    21:00 +21°C° 0 mm 1 m/S 604 mmHg 42%
    22:00 +21°C° 0 mm 1 m/S 604 mmHg 44%
    23:00 +20°C° 0 mm 1 m/S 604 mmHg 46%

    übermorgen, 22 August, Mittwoch

    Zeit Temperatur Niederschläge Wind Luftdruck Luftfeuchtigkeit
    00:00 +19°C° 0 mm 1 m/S 604 mmHg 48%
    01:00 +19°C° 0 mm 1 m/S 603 mmHg 50%
    02:00 +18°C° 0 mm 1 m/S 603 mmHg 52%
    03:00 +16°C° 0 mm 1 m/S 603 mmHg 54%
    04:00 +16°C° 0 mm 1 m/S 603 mmHg 54%
    05:00 +16°C° 0 mm 1 m/S 603 mmHg 55%
    06:00 +16°C° 0 mm 1 m/S 603 mmHg 55%
    07:00 +19°C° 0 mm 1 m/S 604 mmHg 49%
    08:00 +21°C° 0 mm 1 m/S 604 mmHg 42%
    09:00 +23°C° 0 mm 2 m/S 605 mmHg 35%
    10:00 +24°C° 0 mm 2 m/S 605 mmHg 32%
    11:00 +25°C° 0 mm 2 m/S 605 mmHg 28%
    12:00 +27°C° 0 mm 2 m/S 606 mmHg 25%
    13:00 +27°C° 0 mm 2 m/S 605 mmHg 23%
    14:00 +28°C° 0 mm 2 m/S 605 mmHg 22%
    15:00 +29°C° 0 mm 2 m/S 605 mmHg 20%
    16:00 +28°C° 0 mm 3 m/S 605 mmHg 21%
    17:00 +27°C° 0 mm 3 m/S 605 mmHg 22%
    18:00 +27°C° 0 mm 3 m/S 605 mmHg 23%
    19:00 +25°C° 0 mm 2 m/S 605 mmHg 27%
    20:00 +23°C° 0 mm 2 m/S 605 mmHg 31%
    21:00 +21°C° 0 mm 2 m/S 605 mmHg 36%
    22:00 +20°C° 0 mm 2 m/S 604 mmHg 38%
    23:00 +19°C° 0 mm 2 m/S 604 mmHg 41%

    23 August, Donnerstag

    Zeit Temperatur Niederschläge Wind Luftdruck Luftfeuchtigkeit
    00:00 +18°C° 0 mm 2 m/S 604 mmHg 44%
    01:00 +18°C° 0 mm 2 m/S 604 mmHg 47%
    02:00 +18°C° 0 mm 1 m/S 604 mmHg 50%
    03:00 +16°C° 0 mm 1 m/S 604 mmHg 53%
    04:00 +16°C° 0 mm 1 m/S 604 mmHg 54%
    05:00 +16°C° 0 mm 1 m/S 604 mmHg 56%
    06:00 +16°C° 0 mm 1 m/S 604 mmHg 57%
    07:00 +19°C° 0 mm 1 m/S 604 mmHg 50%
    08:00 +20°C° 0 mm 2 m/S 605 mmHg 43%
    09:00 +23°C° 0 mm 2 m/S 606 mmHg 36%
    10:00 +24°C° 0 mm 2 m/S 606 mmHg 32%
    11:00 +25°C° 0 mm 2 m/S 606 mmHg 28%
    12:00 +27°C° 0 mm 3 m/S 606 mmHg 25%
    13:00 +27°C° 0 mm 3 m/S 606 mmHg 23%
    14:00 +28°C° 0 mm 3 m/S 606 mmHg 22%
    15:00 +29°C° 0 mm 3 m/S 606 mmHg 20%
    16:00 +28°C° 0 mm 3 m/S 606 mmHg 21%
    17:00 +28°C° 0 mm 3 m/S 606 mmHg 22%
    18:00 +27°C° 0 mm 3 m/S 606 mmHg 24%
    19:00 +25°C° 0 mm 3 m/S 606 mmHg 28%
    20:00 +24°C° 0 mm 2 m/S 605 mmHg 32%
    21:00 +21°C° 0 mm 2 m/S 605 mmHg 36%
    22:00 +20°C° 0 mm 2 m/S 605 mmHg 38%
    23:00 +19°C° 0 mm 2 m/S 605 mmHg 40%

    24 August, Freitag

    Zeit Temperatur Niederschläge Wind Luftdruck Luftfeuchtigkeit
    00:00 +19°C° 0 mm 2 m/S 605 mmHg 42%
    01:00 +18°C° 0 mm 2 m/S 605 mmHg 44%
    02:00 +18°C° 0 mm 1 m/S 604 mmHg 46%
    03:00 +18°C° 0 mm 1 m/S 604 mmHg 48%
    04:00 +18°C° 0 mm 1 m/S 604 mmHg 48%
    05:00 +18°C° 0 mm 1 m/S 604 mmHg 49%
    06:00 +16°C° 0 mm 1 m/S 604 mmHg 50%
    07:00 +19°C° 0 mm 1 m/S 605 mmHg 44%
    08:00 +21°C° 0 mm 1 m/S 605 mmHg 38%
    09:00 +23°C° 0 mm 2 m/S 606 mmHg 31%
    10:00 +25°C° 0 mm 2 m/S 606 mmHg 28%
    11:00 +26°C° 0 mm 2 m/S 606 mmHg 25%
    12:00 +28°C° 0 mm 2 m/S 606 mmHg 22%
    13:00 +28°C° 0 mm 3 m/S 606 mmHg 21%
    14:00 +29°C° 0 mm 3 m/S 606 mmHg 20%
    15:00 +30°C° 0 mm 3 m/S 606 mmHg 19%
    16:00 +29°C° 0 mm 3 m/S 606 mmHg 20%
    17:00 +29°C° 0 mm 3 m/S 606 mmHg 21%
    18:00 +28°C° 0 mm 3 m/S 605 mmHg 22%
    19:00 +26°C° 0 mm 2 m/S 605 mmHg 26%
    20:00 +24°C° 0 mm 2 m/S 605 mmHg 30%
    21:00 +21°C° 0 mm 2 m/S 605 mmHg 34%
    22:00 +21°C° 0 mm 2 m/S 604 mmHg 35%
    23:00 +20°C° 0 mm 2 m/S 604 mmHg 36%

    25 August, Samstag

    Zeit Temperatur Niederschläge Wind Luftdruck Luftfeuchtigkeit
    00:00 +19°C° 0 mm 2 m/S 604 mmHg 37%
    01:00 +20°C° 0 mm 1 m/S 604 mmHg 39%
    02:00 +19°C° 0 mm 1 m/S 603 mmHg 40%
    03:00 +18°C° 0 mm 1 m/S 603 mmHg 41%
    04:00 +18°C° 0 mm 1 m/S 603 mmHg 42%
    05:00 +18°C° 0 mm 1 m/S 603 mmHg 43%
    06:00 +18°C° 0 mm 1 m/S 603 mmHg 43%
    07:00 +20°C° 0 mm 1 m/S 604 mmHg 38%
    08:00 +22°C° 0 mm 1 m/S 605 mmHg 32%
    09:00 +24°C° 0 mm 1 m/S 605 mmHg 27%
    10:00 +26°C° 0 mm 2 m/S 606 mmHg 24%
    11:00 +27°C° 0 mm 2 m/S 606 mmHg 22%
    12:00 +29°C° 0 mm 2 m/S 606 mmHg 19%
    13:00 +29°C° 0 mm 2 m/S 606 mmHg 18%
    14:00 +30°C° 0 mm 2 m/S 606 mmHg 17%
    15:00 +31°C° 0 mm 3 m/S 605 mmHg 16%
    16:00 +30°C° 0 mm 2 m/S 605 mmHg 17%
    17:00 +29°C° 0 mm 2 m/S 605 mmHg 18%
    18:00 +28°C° 0 mm 2 m/S 604 mmHg 19%
    19:00 +27°C° 0 mm 2 m/S 604 mmHg 23%
    20:00 +25°C° 0 mm 2 m/S 604 mmHg 26%
    21:00 +23°C° 0 mm 1 m/S 603 mmHg 30%
    22:00 +22°C° 0 mm 1 m/S 603 mmHg 31%
    23:00 +21°C° 0 mm 1 m/S 603 mmHg 33%
    Mehr zeigen